[Date Prev][Date Next][Thread Prev][Thread Next] - [Date Index][Thread Index][Author Index]
2 Line ISS Keps 9-7
- Subject: [sarex] 2 Line ISS Keps 9-7
- From: "Dave Larsen PhD" <doc@xxxxxxxxxxx>
- Date: Sun, 7 Sep 2003 07:07:17 -0700
ISS
1 25544U 98067A 03250.12666093 .00019416 00000-0 22195-3 0 4621
2 25544 51.6323 327.5975 0005957 215.3425 235.0850 15.62166122273803
----
Via the sarex mailing list at AMSAT.ORG courtesy of AMSAT-NA.
To unsubscribe, send "unsubscribe sarex" to Majordomo@amsat.org
AMSAT Home